Regional Weather Roundup
Issued by NWS

Home | Current Version | Previous Version | Text Only | Print | Product List | Glossary Off
Versions: 1 2 3 4 5 6 7 8 9 10 11 12 13 14 15 16 17 18 19 20 21 22 23 24 25 26 27 28 29 30 31 32 33 34 35 36 37 38 39 40 41 42 43 44 45 46 47 48 49 50

000
ASUS43 KDTX 301001
RWRMI
MICHIGAN HOURLY REGIONAL WEATHER ROUNDUP
NATIONAL WEATHER SERVICE DETROIT/PONTIAC MI
600 AM EDT SUN AUG 30 2015

NOTE: "FAIR" INDICATES FEW OR NO CLOUDS BELOW 12,000 FEET WITH NO
SIGNIFICANT WEATHER AND/OR OBSTRUCTION TO VISIBILITY.

MIZ047>049-052>055-059>063-066>070-074>076-081>083-301100-
SOUTHEAST LOWER MICHIGAN

CITY           SKY/WX    TMP DP  RH WIND       PRES   REMARKS
ADRIAN         CLOUDY    66  64  93 CALM      30.06R FOG
ALMA           CLOUDY    64  64  99 NE5       30.04S FOG
ANN ARBOR      CLOUDY    65  64  97 CALM      30.05R FOG
BAD AXE        CLOUDY    63  62  97 CALM      30.07R FOG
CARO           DRIZZLE   63  63  99 CALM      30.05S
DETROIT CITY   CLOUDY    68  65  90 CALM      30.04S
DETROIT        CLOUDY    68  65  90 CALM      30.05R
FLINT          CLOUDY    68  64  87 E3        30.05R FOG
GROSSE ILE     MOCLDY    70  66  88 CALM      30.03S FOG
HILLSDALE      CLOUDY    66  66 100 S5        30.06R FOG
HOWELL         CLOUDY    66  65  98 CALM      30.05R FOG

CITY           SKY/WX    TMP DP  RH WIND       PRES   REMARKS
JACKSON        CLOUDY    66  65  96 S3        30.05R FOG
LAMBERTVILLE   LGT RAIN  69  66  92 CALM      30.05R
LANSING        FOG       64  63  96 CALM      30.04R VSB 1
LAPEER         CLOUDY    64  64  99 CALM      30.05S FOG
MASON          MOCLDY    65  62  89 S3        30.04S FOG
MONROE         CLOUDY    67  67  97 CALM      30.04R FOG
MT. CLEMENS    FOG       65  64  97 CALM      30.03R VSB 1
PONTIAC        CLOUDY    66  65  96 CALM      30.04S FOG
PORT HOPE        N/A     65  64  97 CALM      30.05R
PORT HURON     CLOUDY    64  64 100 S3        30.05S
TRI CITIES     CLOUDY    66  63  90 CALM      30.06R FOG
MIDLAND        CLOUDY    65  64  96 CALM      30.04S FOG
TROY           CLOUDY    67  66  97 CALM      30.06S FOG
SAGINAW HB     CLOUDY    63  63 100 NE3       30.04S FOG
$$
MIZ043>046-050>051-056>058-064>065-071>073-077>080-301100-
SOUTHWEST LOWER MICHIGAN

CITY           SKY/WX    TMP DP  RH WIND       PRES   REMARKS
BATTLE CREEK   CLOUDY    67  65  93 S6        30.04R
BENTON HARBOR  CLOUDY    67  66  97 W3        30.02R FOG
BIG RAPIDS     CLOUDY    63  62  97 CALM      30.05R FOG
COLDWATER      CLOUDY    67  67  97 CALM      30.04R
FREMONT        CLOUDY    64  64 100 N3        30.03S FOG
HOLLAND        CLOUDY    67  65  93 CALM      30.02R FOG
GRAND RAPIDS   CLOUDY    66  65  96 E3        30.03R FOG
IONIA          CLOUDY    65  65 100 CALM      30.03R FOG
KALAMAZOO      CLOUDY    68  65  90 S6        30.03R FOG
LUDINGTON      CLOUDY    62  60  93 CALM      30.04F FOG
MARSHALL       CLOUDY    65  64  97 CALM      30.03S FOG
MOUNT PLEASANT CLOUDY    65  63  93 CALM      30.04S FOG
MUSKEGON       CLOUDY    66  63  90 NE6       30.02F FOG
SOUTH HAVEN    CLOUDY    68  66  96 CALM      30.02R FOG
$$
MIZ016>042-301100-
NORTHERN LOWER MICHIGAN

CITY           SKY/WX    TMP DP  RH WIND       PRES   REMARKS
ALPENA         CLOUDY    54  53  97 CALM      30.06S FOG
BEAVER ISLAND  PTCLDY    61  60  97 SW5       30.04S
BELLAIRE       FOG       56  55  96 CALM      30.05S VSB 1/2
CADILLAC       CLOUDY    58  57  97 CALM      30.06S FOG
CHARLEVOIX     MOCLDY    57  56  99 SE3       30.07S FOG
FRANKFORT      FOG       55  54  97 CALM      30.05R VSB 1/2
GAYLORD        FOG       53  53 100 W3        30.06F VSB 1/4
GRAYLING       FOG       52  52  99 CALM      30.07F VSB 1/4
HARBOR SPRINGS MOCLDY    56  56  97 CALM      30.04S
HOUGHTON LAKE  FOG       53  53 100 CALM      30.07S VSB 1/4
MANISTEE       CLOUDY    55  54  94 CALM      30.05S VSB<1/4
OSCODA         FOG       55  55 100 CALM      30.06R VSB 1
PELLSTON       PTCLDY    50  49  96 CALM      30.05S
ROGERS CITY    CLEAR     59  57  95 W5        30.06R
TRAVERSE CITY  FOG       59  57  93 CALM      30.04S VSB 1
$$
MIZ007>008-015-301100-
EASTERN UPPER MICHIGAN

CITY           SKY/WX    TMP DP  RH WIND       PRES   REMARKS
KINROSS        CLOUDY    57  57 100 SW5       30.04S
MACKINAC ISLAN CLEAR     60  59  96 SW7       30.04R FOG
NEWBERRY       CLOUDY    59  58  99 S7        30.02S FOG
S. S. MARIE    CLOUDY    60  59  96 CALM      30.04R FOG
$$
MIZ004>006-011>014-085-301100-
CENTRAL UPPER MICHIGAN

CITY           SKY/WX    TMP DP  RH WIND       PRES   REMARKS
MANISTIQUE     MOCLDY    60  60  97 CALM      30.03R FOG
ESCANABA       CLEAR     57  55  94 W3        30.02S
MENOMINEE        N/A     55  52  88 CALM      30.03S VSB 1/2
SAWYER-GWINN   FOG       58  57  96 S5        30.02S VSB 1/4
$$
MIZ001>003-009>011-084-301100-
WESTERN UPPER MICHIGAN

CITY           SKY/WX    TMP DP  RH WIND       PRES   REMARKS
IRON MOUNTAIN  CLOUDY    59  58  96 W3        30.03R FOG
HOUGHTON       MOCLDY    60  58  92 CALM      29.97S
IRONWOOD       PTCLDY    63  61  94 S6        29.97S
$$

ABBREVIATIONS USED IN REMARKS
   TC - TEMPERATURE IN CELSIUS
  WCI - WIND CHILL INDEX
   HX - HEAT INDEX
  VSB - VISIBILITY



USA.gov is the U.S. government's official web portal to all federal, state and local government web resources and services.